[[{"header":{"parameterUnit":"m.s-1","parameterCategory":1,"la1":30.2991,"la2":30.254,"lo1":-89.0895,"lo2":-89.0444,"dy":0.0017,"dx":0.0017,"nx":28,"ny":28,"refTime":"2023-11-05T03:00:00:Z","depth":0,"parameterNumber":2,"parameterNumberName":"U-component_of_WINDS"},"data":[0,0,0,0,0,0,0,0,0,0,0,0,0,0,0,0,0,0,0,0,0,0,0,0,0,0,0,0,0,0,0,0,0,0,0,0,0,0,0,0,0,0,0,0,0,0,0,0,0,0,0,0,0,0,0,0,0,0,0.4652,0.4653,0,0.4756,0.4758,0.4759,0.4785,0.4784,0.4783,0.4783,0.4895,0.4899,0.4903,0,0,0,0,0,0,0,0,0,0,0,0,0,0.4481,0.4484,0.4652,0.4654,0.4655,0.4756,0.4758,0.4759,0.4785,0.4784,0.4783,0.4782,0.4894,0.4899,0.4903,0,0,0,0,0,0,0,0,0,0,0,0,0,0.4568,0.4485,0.4652,0.468,0.4683,0.4756,0.4758,0.4759,0.4785,0.4784,0.4783,0.4782,0.4893,0.4898,0.4904,0.4958,0,0,0.492,0.4923,0,0,0,0,0,0,0,0,0.4563,0.4574,0.4674,0.4678,0.4682,0.4756,0.4739,0.4826,0.4785,0.4747,0.4783,0.4781,0.485,0.4859,0.4881,0.4963,0.4968,0.4921,0.4924,0.4926,0.4928,0,0,0,0,0,0,0,0.4557,0.457,0.4694,0.4676,0.4681,0.4689,0.47,0.4755,0.4803,0.475,0.4752,0.4764,0.4852,0.4876,0.4884,0.497,0.4921,0.4925,0.4929,0.4931,0.5102,0.5103,0,0,0,0,0,0,0.4545,0.4564,0.469,0.4697,0.4618,0.4693,0.4705,0.4734,0.4803,0.4812,0.4764,0.4764,0.4867,0.4878,0.4888,0.4956,0.4926,0.4932,0.4935,0.51,0.5102,0.5103,0,0,0,0,0,0,0.4541,0.4556,0.4686,0.4631,0.4648,0.4697,0.4729,0.4736,0.476,0.4814,0.4823,0.4779,0.4867,0.4881,0.494,0.4961,0.4934,0.4939,0.5099,0.5101,0.5103,0.5093,0,0,0,0,0,0,0.4536,0.4554,0.4574,0.4631,0.4651,0.4735,0.473,0.4739,0.4768,0.4769,0.483,0.4839,0.4867,0.4932,0.4945,0.4968,0.4943,0.5097,0.51,0.5102,0.5092,0.5094,0.5097,0,0,0,0,0,0.453,0.4569,0.4575,0.459,0.4677,0.4736,0.4747,0.4777,0.477,0.4791,0.4826,0.4837,0.4956,0.4938,0.4953,0.4978,0.5096,0.5099,0.5102,0.5091,0.5094,0.5096,0,0,0,0,0,0,0.4516,0.4577,0.4585,0.4643,0.4683,0.474,0.4768,0.4779,0.4824,0.4824,0.486,0.4874,0.4931,0.496,0.4939,0.5034,0.5026,0.5032,0.5012,0.5016,0.5018,0.501,0.4948,0,0,0,0,0,0.4519,0.456,0.4612,0.4659,0.4678,0.4719,0.4746,0.4765,0.4809,0.4827,0.4866,0.4911,0.4958,0.4989,0.5035,0.5096,0.511,0.512,0.5123,0.5124,0.513,0.5164,0.517,0.5112,0.5112,0.5112,0,0,0.4528,0.4566,0.459,0.4657,0.469,0.4733,0.4734,0.4779,0.4812,0.4835,0.4893,0.4923,0.4975,0.5035,0.5064,0.5061,0.5148,0.5128,0.5129,0.5133,0.5168,0.5173,0.5178,0.5114,0.5114,0.5114,0,0,0.4564,0.4597,0.4639,0.4672,0.4722,0.4748,0.4758,0.4813,0.4833,0.4891,0.4909,0.4949,0.503,0.5066,0.5095,0.5144,0.5156,0.5158,0.5171,0.5204,0.5209,0.5213,0.5231,0.5237,0.5163,0.5163,0.5163,0,0.4569,0.4632,0.466,0.4704,0.4733,0.4753,0.4796,0.4828,0.4892,0.4912,0.4908,0.5009,0.5046,0.5114,0.5126,0.5149,0.5162,0.5152,0.5205,0.521,0.5214,0.5232,0.5238,0.5163,0.5163,0.5163,0.5163,0,0.4635,0.4678,0.4707,0.4765,0.4797,0.4841,0.4877,0.4907,0.4922,0.495,0.5009,0.5053,0.5109,0.5127,0.5144,0.5198,0.5195,0.5198,0.5191,0.5219,0.5236,0.5243,0.5162,0.5162,0.5162,0.5163,0,0,0.4667,0.4738,0.4748,0.4774,0.483,0.4866,0.4911,0.4962,0.4988,0.5031,0.507,0.5137,0.5139,0.5172,0.5194,0.5223,0.5258,0.5222,0.5224,0.5228,0.5322,0.532,0.5327,0.5267,0.5268,0.5269,0.5318,0,0.4711,0.4789,0.4815,0.4881,0.4922,0.4941,0.498,0.502,0.5047,0.5087,0.5118,0.5164,0.5164,0.5184,0.5213,0.5248,0.5278,0.5245,0.5306,0.5307,0.5292,0.5336,0.5334,0.5377,0.5324,0.5325,0.5326,0,0.4773,0.4814,0.4883,0.4933,0.4951,0.4985,0.5035,0.5072,0.5118,0.5136,0.5171,0.519,0.5239,0.5229,0.5298,0.5274,0.5301,0.5322,0.5324,0.5332,0.5319,0.5345,0.5392,0.5399,0.5337,0.5336,0.5335,0,0.4789,0.4862,0.4913,0.4935,0.4994,0.5018,0.5044,0.5088,0.5118,0.5162,0.5181,0.5231,0.5259,0.5298,0.533,0.5319,0.5396,0.5389,0.5414,0.5413,0.543,0.5429,0.5482,0.5446,0.5446,0.5446,0.5446,0,0.4836,0.4878,0.4921,0.4952,0.5,0.5029,0.5077,0.5104,0.5143,0.5182,0.5202,0.5238,0.5278,0.5319,0.5345,0.5399,0.5411,0.5428,0.5434,0.5426,0.5424,0.5445,0.5443,0.5447,0.5447,0.5447,0.5446,0,0.4863,0.4894,0.495,0.5,0.5014,0.5047,0.5091,0.5124,0.515,0.5198,0.5212,0.5255,0.5305,0.534,0.5406,0.5423,0.5481,0.5487,0.5464,0.5468,0.5491,0.5489,0.5561,0.5572,0.5527,0.5527,0.5528,0,0.4891,0.4923,0.4976,0.5002,0.5027,0.5069,0.5098,0.5129,0.5159,0.5212,0.5238,0.5289,0.5331,0.541,0.5449,0.5499,0.5507,0.5529,0.5515,0.5506,0.5508,0.5506,0.5509,0.5531,0.5531,0.5532,0.5532,0,0.4938,0.4951,0.4991,0.5036,0.5069,0.5107,0.5145,0.5166,0.5203,0.5236,0.5286,0.5319,0.5384,0.5434,0.5488,0.5517,0.5532,0.5535,0.5544,0.5537,0.5523,0.5531,0.5471,0.5534,0.5534,0.5534,0.5534,0.5533,0.4967,0.4996,0.5037,0.5081,0.5112,0.5147,0.5179,0.5209,0.525,0.5304,0.532,0.5372,0.5417,0.5489,0.5519,0.5562,0.5561,0.5573,0.5576,0.5579,0.5579,0.5515,0.5572,0.5572,0.5572,0.5572,0.5572,0,0.5015,0.5042,0.5081,0.5133,0.5167,0.5174,0.5217,0.5246,0.529,0.533,0.537,0.5428,0.5476,0.5518,0.5569,0.5595,0.5603,0.5608,0.5607,0.5613,0.5577,0.5564,0.56,0.56,0.56,0.56,0.56,0.56,0.5044,0.5093,0.5111,0.5176,0.5204,0.5253,0.5276,0.5309,0.534,0.5402,0.5442,0.5468,0.5509,0.5562,0.5608,0.5619,0.5638,0.5641,0.5654,0.5619,0.5616,0.5613,0.5601,0.5644,0.5644,0.5687,0.5687,0.5687]},{"header":{"parameterUnit":"m.s-1","parameterCategory":1,"la1":30.2991,"la2":30.254,"lo1":-89.0895,"lo2":-89.0444,"dy":0.0017,"dx":0.0017,"nx":28,"ny":28,"refTime":"2023-11-05T03:00:00:Z","depth":0,"parameterNumber":3,"parameterNumberName":"V-component_of_WINDS"},"data":[0,0,0,0,0,0,0,0,0,0,0,0,0,0,0,0,0,0,0,0,0,0,0,0,0,0,0,0,0,0,0,0,0,0,0,0,0,0,0,0,0,0,0,0,0,0,0,0,0,0,0,0,0,0,0,0,0,0,0.4432,0.4431,0,0.4332,0.433,0.4329,0.4264,0.4264,0.4263,0.4263,0.4159,0.4156,0.4154,0,0,0,0,0,0,0,0,0,0,0,0,0,0.4567,0.4565,0.4433,0.4431,0.443,0.4332,0.433,0.4329,0.4264,0.4264,0.4263,0.4263,0.416,0.4157,0.4154,0,0,0,0,0,0,0,0,0,0,0,0,0,0.4492,0.4564,0.4433,0.4386,0.4381,0.4332,0.433,0.4329,0.4264,0.4264,0.4263,0.4263,0.4161,0.4157,0.4154,0.4143,0,0,0.4143,0.4141,0,0,0,0,0,0,0,0,0.4496,0.4487,0.4394,0.4389,0.4383,0.431,0.434,0.4267,0.4264,0.4308,0.4263,0.4262,0.4209,0.4202,0.4184,0.4139,0.4134,0.4142,0.414,0.4138,0.4137,0,0,0,0,0,0,0,0.4501,0.4491,0.4393,0.4393,0.4386,0.4369,0.4358,0.4325,0.4264,0.4305,0.43,0.4289,0.4206,0.4188,0.4181,0.4133,0.4142,0.4139,0.4137,0.4135,0.4071,0.4072,0,0,0,0,0,0,0.4514,0.4496,0.4396,0.439,0.4439,0.4367,0.4355,0.4334,0.4264,0.4252,0.4289,0.4286,0.4194,0.4186,0.4177,0.416,0.4139,0.4135,0.4133,0.4071,0.4072,0.4072,0,0,0,0,0,0,0.4517,0.4506,0.44,0.4441,0.4426,0.4366,0.4343,0.4332,0.4314,0.4252,0.4241,0.4282,0.4193,0.4182,0.4152,0.4155,0.4134,0.413,0.407,0.4071,0.4072,0.4126,0,0,0,0,0,0,0.4522,0.4508,0.4504,0.4442,0.4424,0.4377,0.4343,0.4331,0.4308,0.4303,0.4242,0.4232,0.4192,0.4158,0.4148,0.415,0.4127,0.407,0.4071,0.4072,0.4124,0.4128,0.4133,0,0,0,0,0,0.4527,0.4523,0.4504,0.4492,0.4418,0.4377,0.4367,0.4323,0.4308,0.4304,0.4264,0.4233,0.4157,0.4155,0.4144,0.4145,0.4069,0.4071,0.4072,0.4122,0.4127,0.4132,0,0,0,0,0,0,0.4587,0.4514,0.4492,0.4468,0.443,0.4367,0.4359,0.433,0.4295,0.4291,0.4236,0.4223,0.4198,0.4168,0.4168,0.413,0.4109,0.4108,0.4151,0.4156,0.4161,0.4168,0.4124,0,0,0,0,0,0.4598,0.4571,0.4508,0.4494,0.4475,0.4421,0.4401,0.437,0.4327,0.431,0.4268,0.4228,0.4194,0.4173,0.4139,0.4119,0.4104,0.4113,0.4118,0.4122,0.4122,0.4107,0.411,0.4075,0.4075,0.4075,0,0,0.462,0.4577,0.4563,0.4505,0.4471,0.4444,0.4407,0.4381,0.436,0.4306,0.4275,0.4242,0.4193,0.4168,0.4154,0.4142,0.4128,0.4123,0.4127,0.4124,0.4108,0.4112,0.4115,0.4076,0.4076,0.4076,0,0,0.4646,0.4611,0.4594,0.456,0.451,0.4473,0.4469,0.441,0.4386,0.4354,0.4313,0.4286,0.423,0.4197,0.4172,0.4183,0.4154,0.4174,0.4197,0.4184,0.4186,0.4189,0.4192,0.4194,0.4174,0.4174,0.4174,0,0.4679,0.4637,0.4589,0.4564,0.4539,0.4489,0.4471,0.4441,0.4382,0.4365,0.4352,0.428,0.4243,0.4208,0.4211,0.4193,0.4186,0.4181,0.419,0.4192,0.4193,0.4196,0.4197,0.4176,0.4176,0.4176,0.4176,0,0.4681,0.4652,0.4644,0.4588,0.4562,0.4541,0.4489,0.4468,0.4438,0.4403,0.437,0.4324,0.4279,0.4268,0.4239,0.4228,0.4222,0.4201,0.4178,0.42,0.4201,0.4202,0.418,0.4179,0.4179,0.4178,0,0,0.4743,0.4659,0.4658,0.4631,0.457,0.4547,0.4522,0.4478,0.4462,0.4422,0.44,0.4352,0.4331,0.4303,0.427,0.4258,0.4269,0.4237,0.4235,0.4244,0.4253,0.427,0.4272,0.4248,0.4248,0.4248,0.4257,0,0.476,0.4715,0.467,0.464,0.4612,0.4563,0.4542,0.4502,0.4468,0.4439,0.44,0.4368,0.4343,0.4325,0.4311,0.4271,0.427,0.4269,0.4226,0.4226,0.4241,0.4273,0.4291,0.4301,0.4257,0.4257,0.4257,0,0.4774,0.4736,0.4704,0.4644,0.4631,0.4613,0.4568,0.4541,0.4494,0.447,0.4438,0.4402,0.4373,0.4354,0.4312,0.4313,0.4292,0.427,0.4269,0.4263,0.4243,0.4268,0.4303,0.4305,0.4258,0.4258,0.4258,0,0.4822,0.4763,0.4736,0.4714,0.4645,0.4633,0.4603,0.4556,0.4532,0.4492,0.4476,0.4434,0.441,0.4378,0.4331,0.4321,0.4294,0.4271,0.4273,0.4274,0.427,0.4271,0.4302,0.4257,0.4257,0.4257,0.4257,0,0.4846,0.4828,0.4757,0.474,0.4718,0.4665,0.4645,0.4611,0.4568,0.4543,0.4498,0.4476,0.4415,0.4385,0.4348,0.4319,0.4308,0.4287,0.4278,0.4291,0.4294,0.4278,0.4276,0.4257,0.4257,0.4257,0.4257,0,0.4897,0.4848,0.4815,0.4751,0.4735,0.4721,0.4666,0.4648,0.461,0.4579,0.4569,0.451,0.4472,0.4421,0.4368,0.4343,0.4318,0.4303,0.4334,0.4328,0.4332,0.4333,0.4355,0.4355,0.431,0.431,0.4311,0,0.4915,0.49,0.4834,0.4814,0.4786,0.4755,0.473,0.4677,0.4653,0.4597,0.4585,0.4543,0.4507,0.4448,0.44,0.4358,0.4342,0.4352,0.4335,0.4349,0.4341,0.4343,0.4341,0.4357,0.4358,0.4358,0.4359,0,0.4952,0.4929,0.4895,0.4852,0.4823,0.4787,0.4749,0.4735,0.4674,0.4648,0.4609,0.4581,0.4526,0.4484,0.4436,0.4404,0.4371,0.4364,0.4362,0.4377,0.4395,0.4385,0.4345,0.4364,0.4364,0.4363,0.4363,0.4363,0.4987,0.4971,0.4922,0.4885,0.4851,0.4815,0.4794,0.4754,0.472,0.4671,0.4642,0.4603,0.4555,0.4486,0.4456,0.4424,0.4411,0.4409,0.4408,0.4408,0.4412,0.44,0.4415,0.4415,0.4414,0.4414,0.4414,0,0.5022,0.4988,0.4954,0.4902,0.4872,0.4844,0.4799,0.4776,0.4743,0.4701,0.4666,0.462,0.4579,0.4527,0.4483,0.4467,0.4451,0.4458,0.4458,0.4451,0.4426,0.4432,0.4471,0.4471,0.4471,0.4471,0.4471,0.4471,0.5037,0.5008,0.4978,0.4931,0.4896,0.4858,0.4835,0.4802,0.4768,0.4718,0.4685,0.4651,0.4604,0.4556,0.4517,0.4502,0.4488,0.4499,0.448,0.4458,0.4453,0.4448,0.4454,0.4496,0.4496,0.4507,0.4507,0.4508]}]]